Regional Weather Roundup
Issued by NWS

Home | Current Version | Previous Version | Graphics & Text | Print | Product List | Glossary On
Versions: 1 2 3 4 5 6 7 8 9 10 11 12 13 14 15 16 17 18 19 20 21 22 23 24 25 26 27 28 29 30 31 32 33 34 35 36 37 38 39 40 41 42 43 44 45 46 47 48 49 50
000
ASUS43 KFSD 200510
RWRSD

WEATHER ROUNDUP FOR SOUTH DAKOTA
NATIONAL WEATHER SERVICE SIOUX FALLS SD
1200 AM CDT SUN AUG 20 2017

NOTE: "FAIR" INDICATES FEW OR NO CLOUDS BELOW 12,000 FEET WITH NO
SIGNIFICANT WEATHER AND/OR OBSTRUCTIONS TO VISIBILITY.


SDZ001>005-009-010-012>017-200600-
NORTHWEST AND NORTH CENTRAL SOUTH DAKOTA

CITY           SKY/WX    TMP DP  RH WIND       PRES   REMARKS
BUFFALO          N/A     68  46  45 N20       29.89F
FAITH            N/A     66  49  54 NE10      29.91R
MOBRIDGE       CLOUDY    70  59  68 N9        29.84R
$$

SDZ012>016-024>037-041>051-057-063-072>074-200600-
SOUTHWEST AND SOUTH CENTRAL SOUTH DAKOTA

CITY           SKY/WX    TMP DP  RH WIND       PRES   REMARKS
RAPID CTY ARPT CLOUDY    67  43  41 N12       29.94R
PIERRE         PTCLDY    69  65  86 NE6       29.81R
CUSTER         CLEAR     64  35  34 NE14      30.08S
ELLSWORTH AFB  PTCLDY    73  40  30 N14       29.95R
PHILIP         CLOUDY    77  50  38 NE14      29.83S
PINE RIDGE     CLEAR     70  47  43 E7        29.92R
SPEARFISH      FAIR      70  41  35 NW6G13    30.06R
WINNER         FAIR      75  63  66 SW10      29.80F
$$

SDZ004>011-016>023-039-040-200600-
NORTHEAST SOUTH DAKOTA

CITY           SKY/WX    TMP DP  RH WIND       PRES   REMARKS
ABERDEEN       CLEAR     65  64  97 SW5       29.81S
WATERTOWN      CLEAR     66  64  93 S9        29.84S
BROOKINGS      CLOUDY    68  64  87 S12       29.86S
SISSETON         N/A     66  64  93 SE7       29.80F
$$

SDZ017-020-022-023-036>040-048>070-200600-
SOUTHEAST SOUTH DAKOTA

CITY           SKY/WX    TMP DP  RH WIND       PRES   REMARKS
SIOUX FALLS    CLOUDY    72  66  81 S9        29.86F
HURON          CLEAR     70  63  78 SE10      29.80R
CHAMBERLAIN    CLEAR     70  70  99 E5        29.80F
MITCHELL       CLOUDY    71  65  81 SE10      29.82S
YANKTON        CLOUDY    72  65  78 E12       29.82F
$$

ABBREVIATIONS USED IN REMARKS
   TC - TEMPERATURE IN CELSIUS
  WCI - WIND CHILL INDEX
   HX - HEAT INDEX
  VSB - VISIBILITY





USA.gov is the U.S. government's official web portal to all federal, state and local government web resources and services.